TimeEDT,TemperatureF,Dew PointF,Humidity,Sea Level PressureIn,VisibilityMPH,Wind Direction,Wind SpeedMPH,Gust SpeedMPH,PrecipitationIn,Events,Conditions,WindDirDegrees,DateUTC
12:52 AM,66.9,64.9,93,30.12,10.0,South,3.5,-,N/A,,Partly Cloudy,180,2013-08-19 04:52:00
1:52 AM,66.9,64.9,93,30.11,10.0,South,4.6,-,N/A,,Clear,180,2013-08-19 05:52:00
2:52 AM,64.9,64.0,97,30.11,8.0,SSW,4.6,-,N/A,,Clear,200,2013-08-19 06:52:00
3:52 AM,64.0,64.0,100,30.11,7.0,South,4.6,-,N/A,,Clear,190,2013-08-19 07:52:00
4:52 AM,66.0,64.9,96,30.10,7.0,Calm,Calm,-,N/A,,Clear,0,2013-08-19 08:52:00
5:52 AM,64.9,64.9,100,30.11,6.0,Calm,Calm,-,N/A,,Clear,0,2013-08-19 09:52:00
6:52 AM,63.0,62.1,97,30.12,4.0,Calm,Calm,-,N/A,Fog,Patches of Fog,0,2013-08-19 10:52:00
7:52 AM,66.0,64.0,93,30.14,5.0,Calm,Calm,-,N/A,,Clear,0,2013-08-19 11:52:00
8:30 AM,68.0,64.4,88,30.16,6.0,Calm,Calm,-,N/A,,Partly Cloudy,0,2013-08-19 12:30:00
8:52 AM,70.0,66.9,90,30.14,7.0,Calm,Calm,-,N/A,,Partly Cloudy,0,2013-08-19 12:52:00
9:52 AM,73.9,66.9,79,30.13,10.0,NNW,4.6,-,N/A,,Partly Cloudy,340,2013-08-19 13:52:00
10:52 AM,77.0,61.0,58,30.14,10.0,NNW,4.6,-,N/A,,Partly Cloudy,340,2013-08-19 14:52:00
11:52 AM,79.0,62.1,56,30.14,10.0,Variable,3.5,-,N/A,,Partly Cloudy,0,2013-08-19 15:52:00
12:52 PM,82.0,57.9,44,30.12,10.0,Variable,3.5,-,N/A,,Partly Cloudy,0,2013-08-19 16:52:00
1:52 PM,82.9,57.0,41,30.11,10.0,NE,3.5,-,N/A,,Scattered Clouds,40,2013-08-19 17:52:00
2:52 PM,82.0,57.0,42,30.10,10.0,ESE,4.6,-,N/A,,Scattered Clouds,120,2013-08-19 18:52:00
3:52 PM,84.9,55.9,37,30.09,10.0,Calm,Calm,-,N/A,,Partly Cloudy,0,2013-08-19 19:52:00
4:52 PM,84.9,57.9,40,30.07,10.0,WNW,3.5,-,N/A,,Partly Cloudy,290,2013-08-19 20:52:00
5:52 PM,84.0,57.9,41,30.07,10.0,NNW,10.4,-,N/A,,Partly Cloudy,340,2013-08-19 21:52:00
6:52 PM,82.9,57.9,42,30.06,10.0,NNW,6.9,-,N/A,,Partly Cloudy,330,2013-08-19 22:52:00
7:52 PM,80.1,59.0,48,30.06,10.0,NNW,5.8,-,N/A,,Partly Cloudy,340,2013-08-19 23:52:00
8:52 PM,77.0,59.0,54,30.06,10.0,ENE,4.6,-,N/A,,Clear,60,2013-08-20 00:52:00
9:52 PM,72.0,61.0,68,30.08,10.0,ESE,4.6,-,N/A,,Clear,120,2013-08-20 01:52:00
10:52 PM,70.0,62.1,76,30.09,10.0,SSE,4.6,-,N/A,,Clear,160,2013-08-20 02:52:00
11:52 PM,70.0,63.0,78,30.10,8.0,SSE,3.5,-,N/A,,Clear,160,2013-08-20 03:52:00